Home > Weather > Öhringen > Past weeks

Flag for Germany Past Weather in Öhringen, Baden-Württemberg, Germany — Yesterday and Last 2 Weeks

Now
91 °F

Passing clouds.


Feels Like: 91 °F
Forecast: 66 / 90 °F
Wind: 6 mph from East

Location: Niederstetten

Current Time: Aug 27, 2016 at 1:54:03 PM

Latest Report: Aug 27, 2016 at 1:20 PM


Visibility: N/A

Pressure: 30.12 "Hg

Humidity: 34%

Dew Point: 59 °F

Location of ÖhringenLocation

Past Weather in Öhringen — Graph

°F

Öhringen Temperature Yesterday

Maximum temperature yesterday: 90 °F (at 3:20 PM)
Minimum temperature yesterday: 63 °F (at 4:20 AM)
Average temperature yesterday: 75 °F

High & Low Weather Summary for the Past Weeks

 TemperatureHumidityPressure
High90 °F (Aug 26, 3:20 PM)100% (Aug 12, 1:20 PM)30.42 "Hg (Aug 12, 1:20 PM)
Low46 °F (Aug 18, 6:20 AM)27% (Aug 25, 3:20 PM)29.83 "Hg (Aug 18, 7:20 AM)
Average67 °F66%30.13 "Hg
* Reported Aug 12 12:00 PM — Aug 27 12:20 PM, Öhringen, Weather by CustomWeather, © 2016

Note: Actual official high and low records may vary slightly from our data, if they occured in-between our weather recording intervals... More about our weather records

Advertising

Öhringen Weather History for the Previous 24 Hours

Scroll right to see more
 ConditionsComfort  
Time TempWeatherWind HumidityBarometerVisibility
12:20 PM
Sat, Aug 27
88 °FPassing clouds.5 mph38%30.12 "HgN/A
11:20 AM86 °FWarm.7 mph43%30.12 "HgN/A
10:20 AM82 °FWarm.5 mph51%30.15 "HgN/A
9:20 AM79 °FWarm.5 mph58%30.12 "HgN/A
8:20 AM72 °FMild.5 mph69%30.12 "HgN/A
7:20 AM66 °FMild.6 mph78%30.12 "HgN/A
6:20 AM66 °FMild.3 mph78%30.09 "HgN/A
5:20 AM66 °FMild.3 mph78%30.12 "HgN/A
4:20 AM70 °FMild.5 mph73%30.12 "HgN/A
3:20 AM70 °FMild.5 mph69%30.12 "HgN/A
2:20 AM70 °FMild.5 mph64%30.12 "HgN/A
1:20 AM68 °FMild.6 mph69%30.12 "HgN/A
12:20 AM73 °FMild.3 mph61%30.12 "HgN/A
11:20 PM
Fri, Aug 26
72 °FMild.6 mph65%30.12 "HgN/A
10:20 PM73 °FMild.5 mph61%30.12 "HgN/A
9:20 PM75 °FPassing clouds.3 mph61%30.09 "HgN/A
8:20 PM79 °FPassing clouds.3 mph54%30.09 "HgN/A
7:20 PM84 °FWarm.3 mph45%30.09 "HgN/A
6:20 PM88 °FPleasantly warm.3 mph38%30.09 "HgN/A
5:20 PM90 °FHot.5 mph36%30.09 "HgN/A
4:20 PM90 °FHot.5 mph38%30.09 "HgN/A
3:20 PM90 °FHot.6 mph36%30.09 "HgN/A
2:20 PM86 °FWarm.6 mph43%30.09 "HgN/A
1:20 PM86 °FWarm.5 mph43%30.09 "HgN/A
Weather by CustomWeather, © 2016

See weather overviewHow to use our weather pages